| time (UTC) | temp F | wind direction | speed knots | gust knots | rain 1hr in | rain 24hr in | rain mn in | humidity % | barometer mb |
| 20260506081600 | 64 | 172 | 0.0 | 3.5 | 0.00 | 0.00 | 0.00 | 84 | 1013.7 |
| 20260506073053 | 61 | 187 | 1.7 | 4.3 | 0.00 | 0.00 | 0.00 | 83 | 1013.3 |
| 20260506071606 | 61 | 184 | 2.6 | 3.5 | 0.00 | 0.00 | 0.00 | 83 | 1013.1 |
| 20260506061547 | 61 | 166 | 3.5 | 6.1 | 0.00 | 0.00 | 0.00 | 80 | 1012.8 |
| 20260506044540 | 61 | 185 | 2.6 | 3.5 | 0.00 | 0.00 | 0.00 | 82 | 1012.4 |
| 20260506043048 | 61 | 177 | 1.7 | 3.5 | 0.00 | 0.00 | 0.00 | 82 | 1012.4 |
| 20260506041541 | 61 | 184 | 0.9 | 2.6 | 0.00 | 0.00 | 0.00 | 80 | 1012.3 |
| 20260506040045 | 62 | 203 | 0.9 | 2.6 | 0.00 | 0.00 | 0.00 | 82 | 1012.3 |
| 20260506034533 | 62 | 175 | 1.7 | 3.5 | 0.00 | 0.00 | 0.00 | 82 | 1012.5 |
| 20260506033032 | 62 | 205 | 0.0 | 5.2 | 0.00 | 0.00 | 0.00 | 82 | 1012.6 |
| 20260506031530 | 62 | 168 | 2.6 | 6.1 | 0.00 | 0.00 | 0.00 | 83 | 1012.7 |
| 20260506030027 | 63 | 180 | 0.9 | 2.6 | 0.00 | 0.00 | 0.00 | 80 | 1013.0 |
| 20260506024534 | 66 | 121 | 0.0 | 0.0 | 0.00 | 0.00 | 0.00 | 80 | 1012.9 |
| 20260506023024 | 67 | 120 | 0.0 | 0.0 | 0.00 | 0.00 | 0.00 | 80 | 1013.0 |
| 20260506021539 | 67 | 120 | 0.0 | 0.0 | 0.00 | 0.00 | 0.00 | 80 | 1013.2 |
| 20260506020018 | 67 | 120 | 0.0 | 1.7 | 0.00 | 0.00 | 0.00 | 80 | 1013.4 |
| 20260506014522 | 67 | 231 | 0.0 | 0.0 | 0.00 | 0.00 | 0.00 | 80 | 1013.9 |
| 20260506013014 | 67 | 231 | 0.0 | 1.7 | 0.00 | 0.00 | 0.00 | 81 | 1013.8 |
| 20260506011521 | 67 | 231 | 0.0 | 1.7 | 0.00 | 0.00 | 0.00 | 81 | 1014.0 |
| 20260506010013 | 68 | 231 | 0.0 | 0.0 | 0.00 | 0.00 | 0.00 | 81 | 1014.2 |
| 20260506004510 | 68 | 231 | 0.0 | 0.0 | 0.00 | 0.00 | 0.00 | 81 | 1014.2 |
| 20260506003009 | 67 | 231 | 0.9 | 2.6 | 0.00 | 0.00 | 0.00 | 81 | 1014.4 |
| 20260506001512 | 68 | 231 | 1.7 | 2.6 | 0.00 | 0.00 | 0.00 | 81 | 1014.5 |
| 20260506000007 | 68 | 231 | 2.6 | 3.5 | 0.00 | 0.00 | 0.00 | 82 | 1014.4 |
| 20260505234511 | 68 | 231 | 2.6 | 5.2 | 0.00 | 0.00 | 0.00 | 82 | 1014.5 |
| 20260505233005 | 68 | 244 | 2.6 | 3.5 | 0.00 | 0.00 | 0.00 | 82 | 1014.3 |
| 20260505231501 | 68 | 46 | 2.6 | 4.3 | 0.00 | 0.00 | 0.00 | 82 | 1014.4 |
| 20260505230159 | 68 | 50 | 0.9 | 4.3 | 0.00 | 0.00 | 0.00 | 82 | 1014.2 |
| 20260505224559 | 68 | 52 | 0.0 | 4.3 | 0.00 | 0.00 | 0.00 | 81 | 1014.4 |
| 20260505223040 | 69 | 46 | 2.6 | 7.8 | 0.00 | 0.00 | 0.00 | 81 | 1014.5 |
| 20260505221537 | 69 | 19 | 1.7 | 4.3 | 0.00 | 0.00 | 0.00 | 80 | 1014.5 |
| 20260505220040 | 69 | 2 | 1.7 | 3.5 | 0.00 | 0.00 | 0.00 | 79 | 1014.3 |
| 20260505214550 | 69 | 54 | 0.9 | 4.3 | 0.00 | 0.00 | 0.00 | 79 | 1014.3 |
| 20260505213036 | 69 | 255 | 0.9 | 2.6 | 0.00 | 0.00 | 0.00 | 78 | 1014.2 |
| 20260505211542 | 69 | 255 | 0.0 | 2.6 | 0.00 | 0.00 | 0.00 | 78 | 1014.1 |
| 20260505210034 | 69 | 276 | 1.7 | 4.3 | 0.00 | 0.00 | 0.00 | 78 | 1014.0 |
| 20260505204536 | 69 | 93 | 0.9 | 3.5 | 0.00 | 0.00 | 0.00 | 78 | 1014.0 |
| 20260505203049 | 69 | 105 | 2.6 | 7.8 | 0.00 | 0.00 | 0.00 | 78 | 1014.0 |
| 20260505201532 | 69 | 41 | 0.0 | 7.0 | 0.00 | 0.00 | 0.00 | 78 | 1013.9 |
| 20260505200031 | 69 | 63 | 2.6 | 7.0 | 0.00 | 0.00 | 0.00 | 78 | 1013.8 |
| 20260505194531 | 69 | 41 | 2.6 | 7.0 | 0.00 | 0.00 | 0.00 | 78 | 1013.7 |
| 20260505193031 | 69 | 50 | 3.5 | 7.8 | 0.00 | 0.00 | 0.00 | 78 | 1013.6 |
| 20260505191530 | 70 | 51 | 4.3 | 7.8 | 0.00 | 0.00 | 0.00 | 77 | 1013.5 |
| 20260505190029 | 70 | 36 | 3.5 | 7.8 | 0.00 | 0.00 | 0.00 | 77 | 1013.4 |
| 20260505184542 | 70 | 41 | 4.3 | 7.0 | 0.00 | 0.00 | 0.00 | 76 | 1013.5 |
| 20260505183037 | 71 | 19 | 2.6 | 5.2 | 0.00 | 0.00 | 0.00 | 75 | 1013.5 |
| 20260505181528 | 71 | 16 | 2.6 | 7.0 | 0.00 | 0.00 | 0.00 | 76 | 1013.6 |
| 20260505180028 | 71 | 9 | 2.6 | 8.7 | 0.00 | 0.00 | 0.00 | 77 | 1013.5 |
| 20260505174526 | 70 | 46 | 5.2 | 8.7 | 0.00 | 0.00 | 0.00 | 76 | 1013.3 |
| 20260505173026 | 71 | 63 | 3.5 | 7.0 | 0.00 | 0.00 | 0.00 | 76 | 1013.5 |
| 20260505171526 | 71 | 41 | 2.6 | 7.8 | 0.00 | 0.00 | 0.00 | 76 | 1013.5 |
| 20260505170034 | 71 | 56 | 4.3 | 8.7 | 0.00 | 0.00 | 0.00 | 76 | 1013.4 |
| 20260505164525 | 71 | 13 | 4.3 | 8.7 | 0.00 | 0.00 | 0.00 | 76 | 1013.5 |
| 20260505163008 | 72 | 22 | 4.3 | 7.8 | 0.00 | 0.00 | 0.00 | 75 | 1013.6 |
| 20260505161505 | 72 | 358 | 3.5 | 7.0 | 0.00 | 0.00 | 0.00 | 74 | 1013.6 |
| 20260505153002 | 73 | 46 | 1.7 | 8.7 | 0.00 | 0.00 | 0.00 | 73 | 1014.1 |
| 20260505151500 | 73 | 349 | 4.3 | 8.7 | 0.00 | 0.00 | 0.00 | 73 | 1014.1 |
| 20260505150104 | 72 | 17 | 5.2 | 7.8 | 0.00 | 0.00 | 0.00 | 74 | 1014.1 |
| 20260505140118 | 74 | 36 | 4.3 | 9.6 | 0.00 | 0.00 | 0.00 | 72 | 1014.6 |
| 20260505124556 | 73 | 62 | 4.3 | 8.7 | 0.00 | 0.00 | 0.00 | 73 | 1014.7 |
| 20260505123055 | 74 | 10 | 4.3 | 10.4 | 0.00 | 0.00 | 0.00 | 72 | 1014.7 |
| 20260505121550 | 74 | 31 | 4.3 | 7.0 | 0.00 | 0.00 | 0.00 | 74 | 1014.6 |
| 20260505120055 | 73 | 58 | 2.6 | 7.0 | 0.00 | 0.00 | 0.00 | 74 | 1014.8 |
| 20260505114535 | 73 | 20 | 6.1 | 9.6 | 0.00 | 0.00 | 0.00 | 74 | 1014.7 |
| 20260505113040 | 73 | 19 | 3.5 | 7.8 | 0.00 | 0.00 | 0.00 | 75 | 1014.5 |
| 20260505111541 | 69 | 355 | 4.3 | 7.8 | 0.00 | 0.00 | 0.00 | 78 | 1014.7 |
| 20260505101533 | 69 | 349 | 2.6 | 7.0 | 0.00 | 0.00 | 0.00 | 79 | 1014.5 |
| 20260505100024 | 69 | 147 | 0.0 | 2.6 | 0.00 | 0.00 | 0.00 | 80 | 1014.4 |
| 20260505094526 | 67 | 356 | 0.9 | 2.6 | 0.00 | 0.00 | 0.00 | 81 | 1014.4 |
| 20260505093023 | 66 | 321 | 1.7 | 4.3 | 0.00 | 0.00 | 0.00 | 82 | 1014.4 |
| 20260505091519 | 66 | 328 | 2.6 | 4.3 | 0.00 | 0.00 | 0.00 | 82 | 1014.0 |
| 20260505090021 | 66 | 31 | 3.5 | 7.0 | 0.00 | 0.00 | 0.00 | 83 | 1014.0 |
| 20260505084526 | 65 | 196 | 0.0 | 1.7 | 0.00 | 0.00 | 0.00 | 84 | 1013.9 |
| 20260505083018 | 65 | 299 | 0.0 | 2.6 | 0.00 | 0.00 | 0.00 | 83 | 1014.2 |